TimeCST,TemperatureF,Dew PointF,Humidity,Sea Level PressureIn,VisibilityMPH,Wind Direction,Wind SpeedMPH,Gust SpeedMPH,PrecipitationIn,Events,Conditions,WindDirDegrees,DateUTC
12:14 AM,26.6,21.2,80,30.24,10.0,East,5.8,-,N/A,,Clear,80,2012-11-04 05:14:00
12:34 AM,24.8,21.2,86,30.24,10.0,ENE,5.8,-,N/A,,Clear,70,2012-11-04 05:34:00
12:54 AM,24.8,19.4,80,30.25,10.0,ENE,4.6,-,N/A,,Clear,70,2012-11-04 05:54:00
1:14 AM,24.8,19.4,80,30.25,10.0,ENE,4.6,-,N/A,,Clear,60,2012-11-04 06:14:00
1:34 AM,23.0,19.4,86,30.25,10.0,Calm,Calm,-,N/A,,Clear,0,2012-11-04 06:34:00
1:54 AM,24.8,19.4,80,30.25,10.0,Calm,Calm,-,N/A,,Scattered Clouds,0,2012-11-04 06:54:00
1:14 AM,26.6,21.2,80,30.25,10.0,Calm,Calm,-,N/A,,Mostly Cloudy,0,2012-11-04 07:14:00
1:34 AM,26.6,21.2,80,30.25,10.0,ENE,3.5,-,N/A,,Mostly Cloudy,60,2012-11-04 07:34:00
1:54 AM,26.6,21.2,80,30.25,10.0,ENE,4.6,-,N/A,,Mostly Cloudy,60,2012-11-04 07:54:00
2:14 AM,26.6,21.2,80,30.25,10.0,East,3.5,-,N/A,,Scattered Clouds,80,2012-11-04 08:14:00
2:34 AM,24.8,21.2,86,30.24,10.0,ENE,3.5,-,N/A,,Clear,70,2012-11-04 08:34:00
2:54 AM,24.8,19.4,80,30.24,10.0,East,5.8,-,N/A,,Clear,80,2012-11-04 08:54:00
3:14 AM,26.6,21.2,80,30.24,10.0,East,5.8,-,N/A,,Clear,100,2012-11-04 09:14:00
3:35 AM,26.6,23.0,86,30.24,10.0,East,6.9,-,N/A,,Clear,90,2012-11-04 09:35:00
3:54 AM,26.6,21.2,80,30.24,10.0,East,9.2,-,N/A,,Clear,90,2012-11-04 09:54:00
4:14 AM,26.6,21.2,80,30.24,10.0,East,8.1,-,N/A,,Clear,90,2012-11-04 10:14:00
4:35 AM,26.6,21.2,80,30.24,10.0,East,5.8,-,N/A,,Clear,90,2012-11-04 10:35:00
4:54 AM,24.8,21.2,86,30.24,10.0,East,5.8,-,N/A,,Clear,90,2012-11-04 10:54:00
5:14 AM,24.8,21.2,86,30.24,10.0,East,8.1,-,N/A,,Clear,90,2012-11-04 11:14:00
5:35 AM,24.8,19.4,80,30.24,10.0,East,6.9,-,N/A,,Clear,90,2012-11-04 11:35:00
6:14 AM,24.8,19.4,80,30.23,10.0,East,8.1,-,N/A,,Clear,90,2012-11-04 12:14:00
6:35 AM,24.8,19.4,80,30.23,10.0,East,6.9,-,N/A,,Mostly Cloudy,100,2012-11-04 12:35:00
6:54 AM,24.8,19.4,80,30.23,10.0,East,6.9,-,N/A,,Mostly Cloudy,100,2012-11-04 12:54:00
7:14 AM,24.8,19.4,80,30.23,10.0,Calm,Calm,-,N/A,,Scattered Clouds,0,2012-11-04 13:14:00
7:35 AM,24.8,19.4,80,30.23,10.0,East,4.6,-,N/A,,Mostly Cloudy,80,2012-11-04 13:35:00
7:54 AM,24.8,21.2,86,30.23,10.0,East,4.6,-,N/A,,Mostly Cloudy,90,2012-11-04 13:54:00
8:14 AM,26.6,21.2,80,30.23,10.0,East,5.8,-,N/A,,Mostly Cloudy,80,2012-11-04 14:14:00
8:35 AM,26.6,21.2,80,30.23,10.0,East,5.8,-,N/A,,Mostly Cloudy,80,2012-11-04 14:35:00
8:54 AM,26.6,23.0,86,30.23,10.0,East,6.9,-,N/A,,Mostly Cloudy,80,2012-11-04 14:54:00
9:14 AM,28.4,24.8,86,30.22,10.0,East,8.1,-,N/A,,Scattered Clouds,80,2012-11-04 15:14:00
9:35 AM,30.2,24.8,80,30.22,10.0,East,8.1,-,N/A,,Clear,90,2012-11-04 15:35:00
9:54 AM,30.2,26.6,86,30.22,10.0,East,9.2,-,N/A,,Clear,90,2012-11-04 15:54:00
10:14 AM,30.2,26.6,86,30.22,10.0,East,6.9,-,N/A,,Clear,90,2012-11-04 16:14:00
10:34 AM,32.0,26.6,80,30.22,10.0,East,5.8,-,N/A,,Clear,100,2012-11-04 16:34:00
10:54 AM,33.8,28.4,81,30.21,10.0,East,8.1,-,N/A,,Clear,90,2012-11-04 16:54:00
11:15 AM,33.8,28.4,81,30.21,10.0,ENE,6.9,-,N/A,,Clear,70,2012-11-04 17:15:00
11:34 AM,33.8,28.4,81,30.21,10.0,ENE,8.1,-,N/A,,Clear,70,2012-11-04 17:34:00
11:54 AM,35.6,28.4,75,30.21,10.0,East,9.2,-,N/A,,Clear,80,2012-11-04 17:54:00
12:15 PM,35.6,28.4,75,30.20,10.0,ENE,9.2,-,N/A,,Clear,70,2012-11-04 18:15:00
12:34 PM,35.6,28.4,75,30.20,10.0,ENE,11.5,-,N/A,,Clear,70,2012-11-04 18:34:00
12:54 PM,35.6,28.4,75,30.20,10.0,NE,10.4,-,N/A,,Clear,50,2012-11-04 18:54:00
1:15 PM,35.6,28.4,75,30.20,10.0,NE,11.5,-,N/A,,Clear,50,2012-11-04 19:15:00
1:34 PM,35.6,28.4,75,30.20,10.0,ENE,12.7,-,N/A,,Clear,60,2012-11-04 19:34:00
1:54 PM,35.6,28.4,75,30.20,10.0,NE,11.5,-,N/A,,Clear,40,2012-11-04 19:54:00
2:14 PM,35.6,28.4,75,30.19,10.0,NE,11.5,-,N/A,,Scattered Clouds,50,2012-11-04 20:14:00
2:34 PM,35.6,28.4,75,30.20,10.0,NE,11.5,-,N/A,,Scattered Clouds,50,2012-11-04 20:34:00
2:54 PM,33.8,28.4,81,30.20,10.0,NE,12.7,-,N/A,,Scattered Clouds,50,2012-11-04 20:54:00
3:14 PM,33.8,28.4,81,30.20,10.0,ENE,13.8,-,N/A,,Mostly Cloudy,60,2012-11-04 21:14:00
3:34 PM,33.8,28.4,81,30.20,10.0,NE,11.5,-,N/A,,Mostly Cloudy,50,2012-11-04 21:34:00
3:54 PM,33.8,28.4,81,30.20,10.0,NE,11.5,-,N/A,,Scattered Clouds,50,2012-11-04 21:54:00
4:14 PM,33.8,28.4,81,30.20,10.0,ENE,13.8,-,N/A,,Mostly Cloudy,60,2012-11-04 22:14:00
4:34 PM,33.8,28.4,81,30.20,10.0,ENE,12.7,-,N/A,,Mostly Cloudy,60,2012-11-04 22:34:00
4:54 PM,33.8,28.4,81,30.21,10.0,ENE,10.4,-,N/A,,Scattered Clouds,70,2012-11-04 22:54:00
5:14 PM,33.8,28.4,81,30.21,10.0,NE,9.2,-,N/A,,Mostly Cloudy,50,2012-11-04 23:14:00
5:34 PM,33.8,28.4,81,30.22,10.0,ENE,9.2,-,N/A,,Overcast,60,2012-11-04 23:34:00
5:54 PM,33.8,28.4,81,30.22,10.0,ENE,9.2,-,N/A,,Mostly Cloudy,70,2012-11-04 23:54:00
6:14 PM,33.8,28.4,81,30.22,10.0,East,11.5,-,N/A,,Mostly Cloudy,80,2012-11-05 00:14:00
6:34 PM,33.8,28.4,81,30.23,10.0,East,10.4,-,N/A,,Mostly Cloudy,80,2012-11-05 00:34:00
6:54 PM,32.0,28.4,87,30.23,10.0,East,11.5,-,N/A,,Mostly Cloudy,90,2012-11-05 00:54:00
7:14 PM,32.0,26.6,80,30.24,10.0,East,10.4,-,N/A,,Mostly Cloudy,90,2012-11-05 01:14:00
7:34 PM,32.0,26.6,80,30.24,10.0,East,10.4,-,N/A,,Mostly Cloudy,90,2012-11-05 01:34:00
7:54 PM,32.0,26.6,80,30.23,10.0,East,9.2,-,N/A,,Mostly Cloudy,90,2012-11-05 01:54:00
8:14 PM,30.2,26.6,86,30.23,10.0,East,9.2,-,N/A,,Mostly Cloudy,90,2012-11-05 02:14:00
8:34 PM,30.2,26.6,86,30.24,10.0,East,8.1,-,N/A,,Mostly Cloudy,90,2012-11-05 02:34:00
8:54 PM,30.2,26.6,86,30.24,10.0,East,9.2,-,N/A,,Mostly Cloudy,90,2012-11-05 02:54:00
9:14 PM,30.2,26.6,86,30.24,10.0,East,8.1,-,N/A,,Mostly Cloudy,90,2012-11-05 03:14:00
9:34 PM,30.2,26.6,86,30.25,10.0,East,4.6,-,N/A,,Mostly Cloudy,90,2012-11-05 03:34:00
9:54 PM,30.2,26.6,86,30.25,10.0,East,5.8,-,N/A,,Mostly Cloudy,90,2012-11-05 03:54:00
10:14 PM,30.2,26.6,86,30.25,10.0,East,5.8,-,N/A,,Mostly Cloudy,90,2012-11-05 04:14:00
10:34 PM,30.2,26.6,86,30.24,10.0,East,6.9,-,N/A,,Mostly Cloudy,90,2012-11-05 04:34:00
10:54 PM,30.2,26.6,86,30.24,10.0,East,6.9,-,N/A,,Overcast,100,2012-11-05 04:54:00